Regional Weather Roundup
Issued by NWS Albany, NY

Home | Current Version | Previous Version | Text Only | Print | Product List | Glossary On
Versions: 1 2 3 4 5 6 7 8 9 10 11 12 13 14 15 16 17 18 19 20 21 22 23 24 25 26 27 28 29 30 31 32 33 34 35 36 37 38 39 40 41 42 43 44 45 46 47 48 49 50
000
ASUS41 KALY 221810
RWRALY

NEW YORK STATE HOURLY WEATHER ROUNDUP
NATIONAL WEATHER SERVICE ALBANY NY
100 PM EST MON JAN 22 2018

NOTE: "FAIR" INDICATES FEW OR NO CLOUDS BELOW 12,000 FEET WITH NO
SIGNIFICANT WEATHER AND/OR NO OBSTRUCTIONS TO VISIBILITY.

NYZ032-033-038>043-046>054-057>066-NYZ062>081-082-084-221900-
EAST


CITY           SKY/WX    TMP DP  RH WIND       PRES   REMARKS
ALBANY         CLOUDY    35  29  78 N3        30.19F
GLENS FALLS    CLOUDY    30  25  81 NE5       30.19F WCI  25
POUGHKEEPSIE   CLOUDY    40  35  83 W3        30.16F HAZE
NEWBURGH       PTSUNNY   39  39 100 CALM      30.16F FOG
MONTGOMERY     CLOUDY    39  36  89 N6        30.14F FOG     WCI  35
WHITE PLAINS   PTSUNNY   46  40  79 E5        30.14F HAZE
ISLIP          CLOUDY    52  42  69 NE5       30.15F
NEW YORK CITY  CLOUDY    43  38  82 NE8       30.16F
CENTRAL PARK   FAIR      46  39  76 E6        30.18F HAZE
$$

NYZ005>009-017-018-044>046-055-056-221900-
CENTRAL


CITY           SKY/WX    TMP DP  RH WIND       PRES   REMARKS
FULTON         CLOUDY    39  35  86 E5        30.02F
SYRACUSE       LGT RAIN  37  36  96 E10       30.03F WCI  30
ROME           CLOUDY    37  33  85 SE13      30.10F WCI  29
ELMIRA         CLOUDY    42  42 100 NE3       30.00F FOG
BINGHAMTON     FOG       39  39 100 SE9       30.02F VSB<1/4 WCI  33
MONTICELLO     FOG       38  38 100 E9        30.11F VSB 1/4 WCI  31
$$

NYZ026>034-041>043-087-221900-
NORTH


CITY           SKY/WX    TMP DP  RH WIND       PRES   REMARKS
WATERTOWN      MIX PCPN  29  26  89 NE18      30.07F WCI  16
FORT DRUM      NOT AVBL
OGDENSBURG     CLOUDY    27  20  75 NE12G17   30.16F WCI  16
MASSENA        CLOUDY    23  15  71 NE18      30.22F WCI   9
SARANAC LAKE   CLOUDY    32  27  81 NE10      30.08F WCI  24
PLATTSBURGH    CLOUDY    23  16  74 N8        30.27R WCI  14
$$

NYZ001>004-010>016-019>021-085-221900-
WEST


CITY           SKY/WX    TMP DP  RH WIND       PRES   REMARKS
NIAGARA FALLS  CLOUDY    42  39  89 E9        29.90F FOG
BUFFALO        CLOUDY    43  43 100 NE7       29.91F FOG
DUNKIRK        CLOUDY    53  47  79 S15G24    29.88F
JAMESTOWN      CLOUDY    47  46  97 S10       29.91F
WELLSVILLE     PTSUNNY   50  48  93 S10       29.96F
ROCHESTER      LGT RAIN  38  38 100 E9        29.96F FOG     WCI  31
PENN YAN       PTSUNNY   39  35  86 CALM      29.97F FOG
$$

             KEY
       WCI = WIND CHILL INDEX
       VSB = VISIBILITY
       HX  = HEAT INDEX
$$



USA.gov is the U.S. government's official web portal to all federal, state and local government web resources and services.